Milan, NH

12:32 AM EDT on August 27, 2016 (GMT -0400)
Berlin Municipal

Weather History for KBML - January, 2006

Change the Weather History Date:

Tuesday, January 3, 2006

  Actual Average Record
Temperature  
Mean Temperature 14 °F -  
Max Temperature 27 °F 25 °F 52 °F (2000)
Min Temperature 0 °F 5 °F -23 °F (2008)
Degree Days  
Heating Degree Days 52    
Moisture  
Dew Point 9 °F    
Average Humidity 84    
Maximum Humidity 92    
Minimum Humidity 75    
Precipitation  
Precipitation 0.00 in - - ()
Sea Level Pressure  
Sea Level Pressure 30.20 in    
Wind  
Wind Speed 0 mph (NNW)    
Max Wind Speed 4 mph    
Max Gust Speed -    
Visibility 10 miles    
Events      
Averages and records for this station are not official NWS values.
T = Trace of Precipitation, MM = Missing Value Source: NWS Daily Summary

Daily Weather History Graph

Daily Weather History Graph

Search for Another Location

Airport or City:

Trip Planner

Search our weather history database for the weather conditions in past years. The results will help you decide how hot, cold, wet, or windy it might be!

Date:

Astronomy

Jan. 03, 2006 Rise Set
Actual Time 7:21 AM EST 4:17 PM EST
Civil Twilight 6:48 AM EST 4:50 PM EST
Nautical Twilight 6:11 AM EST 5:27 PM EST
Astronomical Twilight 5:36 AM EST 6:02 PM EST
Moon 10:08 AM EST (1/3) 8:47 PM EST (1/3)
Length of Visible Light 10h 02m
Length of Day
8h 55m
Waxing Crescent, 17% of the Moon is Illuminated
Jan 3
Waxing Crescent
Jan 6
First Quarter
Jan 14
Full
Jan 22
Last Quarter
Jan 29
New

Hourly Weather History & Observations

Time (EST) Temp. Windchill Dew Point Humidity Pressure Visibility Wind Dir Wind Speed Gust Speed Precip Events Conditions
12:52 AM 12.0 °F - 8.1 °F 84% 30.21 in 10.0 mi Calm Calm - N/A   Clear
1:52 AM 12.9 °F - 9.0 °F 84% 30.22 in 10.0 mi Calm Calm - N/A   Clear
2:52 AM 12.0 °F - 9.0 °F 88% 30.21 in 10.0 mi Calm Calm - N/A   Clear
3:52 AM 12.9 °F - 9.0 °F 84% 30.20 in 10.0 mi Calm Calm - N/A   Clear
4:52 AM 12.9 °F - 9.0 °F 84% 30.20 in 10.0 mi Calm Calm - N/A   Clear
5:52 AM 10.0 °F - 6.1 °F 84% 30.21 in 10.0 mi Calm Calm - N/A   Clear
7:52 AM 10.9 °F - 7.0 °F 84% 30.20 in 10.0 mi Calm Calm - N/A   Clear
8:52 AM 10.9 °F - 8.1 °F 88% 30.22 in 10.0 mi Calm Calm - N/A   Clear
9:52 AM 15.1 °F - 12.9 °F 91% 30.23 in 9.0 mi Calm Calm - N/A   Clear
10:52 AM 19.9 °F - 18.0 °F 92% 30.20 in 10.0 mi Calm Calm - N/A   Clear
11:52 AM 24.1 °F - 19.0 °F 81% 30.18 in 10.0 mi Calm Calm - N/A   Partly Cloudy
12:52 PM 27.0 °F 23.0 °F 19.9 °F 75% 30.16 in 10.0 mi North 3.5 mph - N/A   Clear
1:52 PM 27.0 °F - 19.9 °F 75% 30.16 in 10.0 mi Calm Calm - N/A   Clear
2:52 PM 27.0 °F 23.0 °F 19.9 °F 75% 30.15 in 10.0 mi NNW 3.5 mph - N/A   Clear
3:52 PM 25.0 °F - 19.0 °F 78% 30.16 in 10.0 mi Calm Calm - N/A   Clear
4:52 PM 21.0 °F - 18.0 °F 88% 30.18 in 10.0 mi Calm Calm - N/A   Clear
5:52 PM 12.9 °F - 10.9 °F 92% 30.20 in 8.0 mi Calm Calm - N/A   Clear
6:52 PM 10.9 °F - 9.0 °F 92% 30.22 in 9.0 mi Calm Calm - N/A   Clear
7:52 PM 8.1 °F - 3.9 °F 83% 30.22 in 10.0 mi Calm Calm - N/A   Clear
8:52 PM 5.0 °F - 1.9 °F 87% 30.23 in 10.0 mi Calm Calm - N/A   Clear
9:25 PM 1.4 °F - -0.4 °F 92% 30.15 in 10.0 mi Calm Calm - N/A   Mostly Cloudy
9:52 PM 1.9 °F - -2.0 °F 83% 30.23 in 10.0 mi Calm Calm - N/A   Overcast
10:24 PM 1.4 °F - -2.2 °F 85% 30.14 in 10.0 mi Calm Calm - N/A   Scattered Clouds
10:52 PM -0.9 °F - -6.0 °F 79% 30.22 in 10.0 mi Calm Calm - N/A   Partly Cloudy
11:52 PM -0.9 °F - -6.0 °F 79% 30.21 in 10.0 mi Calm Calm - N/A   Clear